[[{"header":{"parameterUnit":"m.s-1","parameterCategory":1,"la1":30.2991,"la2":30.254,"lo1":-89.0895,"lo2":-89.0444,"dy":0.0017,"dx":0.0017,"nx":28,"ny":28,"refTime":"2024-05-10T09:00:00:Z","depth":0,"parameterNumber":2,"parameterNumberName":"U-component_of_WINDS"},"data":[0,0,0,0,0,0,0,0,0,0,0,0,0,0,0,0,0,0,0,0,0,0,0,0,0,0,0,0,0,0,0,0,0,0,0,0,0,0,0,0,0,0,0,0,0,0,0,0,0,0,0,0,0,0,0,0,0,0,0.6946,0.6946,0,0.6938,0.6938,0.6938,0.695,0.6951,0.6951,0.6952,0.6942,0.6941,0.694,0,0,0,0,0,0,0,0,0,0,0,0,0,0.6972,0.6972,0.6946,0.6946,0.6946,0.6938,0.6938,0.6938,0.695,0.6951,0.6951,0.6952,0.6942,0.6941,0.694,0,0,0,0,0,0,0,0,0,0,0,0,0,0.6962,0.6972,0.6946,0.6951,0.6952,0.6938,0.6938,0.6938,0.695,0.6951,0.6952,0.6952,0.6942,0.6941,0.694,0.692,0,0,0.6937,0.6936,0,0,0,0,0,0,0,0,0.6963,0.6961,0.6951,0.6951,0.6951,0.6946,0.6943,0.6932,0.695,0.6951,0.6952,0.6952,0.6942,0.6941,0.6938,0.692,0.6919,0.6937,0.6936,0.6936,0.6935,0,0,0,0,0,0,0,0.6963,0.6962,0.6943,0.695,0.6951,0.6954,0.6953,0.6941,0.6943,0.6951,0.6952,0.6951,0.6943,0.6939,0.6938,0.6919,0.6937,0.6936,0.6935,0.6935,0.6886,0.6885,0,0,0,0,0,0,0.6964,0.6962,0.6943,0.6942,0.6959,0.6953,0.6952,0.6947,0.6943,0.6943,0.695,0.6951,0.6941,0.6939,0.6938,0.6915,0.6936,0.6935,0.6934,0.6886,0.6885,0.6885,0,0,0,0,0,0,0.6964,0.6962,0.6943,0.6953,0.6951,0.6952,0.6946,0.6946,0.6943,0.6942,0.6943,0.6946,0.6941,0.6939,0.6925,0.6915,0.6934,0.6933,0.6887,0.6886,0.6885,0.6869,0,0,0,0,0,0,0.6965,0.6962,0.6954,0.6952,0.695,0.6931,0.6945,0.6946,0.6941,0.6943,0.6939,0.6939,0.6942,0.6926,0.6924,0.6914,0.6933,0.6888,0.6887,0.6885,0.687,0.6868,0.6865,0,0,0,0,0,0.6966,0.6949,0.6954,0.6951,0.6941,0.693,0.6929,0.6932,0.694,0.6933,0.6933,0.6939,0.6917,0.6925,0.6922,0.6912,0.6889,0.6887,0.6886,0.6872,0.6868,0.6865,0,0,0,0,0,0,0.6949,0.6949,0.6954,0.6937,0.6933,0.6932,0.6922,0.6928,0.6922,0.6923,0.6928,0.6927,0.6912,0.691,0.692,0.6893,0.6904,0.6902,0.6894,0.6891,0.6888,0.6889,0.6932,0,0,0,0,0,0.6944,0.6935,0.6936,0.692,0.6919,0.6921,0.6916,0.692,0.6916,0.6915,0.6914,0.691,0.6902,0.6896,0.6889,0.6871,0.687,0.6862,0.686,0.6857,0.6855,0.6846,0.6843,0.688,0.688,0.688,0,0,0.6932,0.6931,0.6925,0.6917,0.6915,0.6906,0.6919,0.6909,0.6903,0.6913,0.69,0.6899,0.6895,0.6879,0.6872,0.6877,0.6845,0.6855,0.6854,0.6853,0.6844,0.6841,0.6838,0.6879,0.6879,0.6879,0,0,0.6905,0.6904,0.6891,0.6889,0.6886,0.6888,0.6886,0.6884,0.6884,0.6871,0.6879,0.6871,0.6858,0.6855,0.6852,0.6827,0.6832,0.6824,0.681,0.6801,0.6798,0.6796,0.6787,0.6784,0.6822,0.6822,0.6822,0,0.6891,0.6878,0.6884,0.6874,0.687,0.6881,0.6868,0.6866,0.686,0.6858,0.6864,0.6848,0.6846,0.683,0.6824,0.6821,0.6818,0.6824,0.6799,0.6796,0.6794,0.6786,0.6782,0.6821,0.6821,0.6821,0.6822,0,0.686,0.6852,0.6842,0.6838,0.6833,0.6822,0.6826,0.6821,0.6826,0.6827,0.6814,0.6813,0.6806,0.6802,0.6806,0.6787,0.6791,0.6798,0.6809,0.6789,0.6782,0.6779,0.682,0.682,0.6821,0.6821,0,0,0.6822,0.6822,0.6819,0.6817,0.6816,0.6809,0.6799,0.6793,0.6789,0.6785,0.6777,0.6766,0.6773,0.677,0.6773,0.6766,0.6747,0.6774,0.6774,0.6769,0.6727,0.6722,0.6718,0.6752,0.6751,0.675,0.6728,0,0.6796,0.6778,0.6784,0.6767,0.6759,0.677,0.6761,0.6759,0.6761,0.6755,0.6756,0.6749,0.6759,0.6757,0.675,0.6751,0.6739,0.6753,0.6744,0.6743,0.6744,0.6714,0.6708,0.6686,0.6725,0.6724,0.6724,0,0.6763,0.6759,0.6741,0.6742,0.674,0.6731,0.6727,0.6722,0.672,0.6722,0.6719,0.6725,0.6715,0.6727,0.6714,0.6724,0.6721,0.6721,0.672,0.6719,0.6732,0.6712,0.6679,0.6676,0.6719,0.672,0.672,0,0.6737,0.6727,0.6716,0.6714,0.6715,0.671,0.671,0.6709,0.6706,0.6702,0.6701,0.6696,0.6693,0.6689,0.6694,0.6702,0.6681,0.6693,0.6682,0.6682,0.6676,0.6676,0.6642,0.6675,0.6675,0.6675,0.6675,0,0.6707,0.6695,0.6704,0.6697,0.6685,0.6692,0.668,0.6681,0.6681,0.6674,0.6683,0.6677,0.6683,0.6678,0.6681,0.6671,0.6669,0.6671,0.6672,0.667,0.6669,0.6667,0.6669,0.6674,0.6674,0.6674,0.6674,0,0.6675,0.668,0.6668,0.6671,0.6672,0.6663,0.6665,0.6659,0.6662,0.6653,0.6652,0.6656,0.665,0.6655,0.6649,0.6652,0.6637,0.6641,0.6638,0.6639,0.6628,0.6629,0.6591,0.6587,0.6622,0.6621,0.6621,0,0.6655,0.6647,0.6649,0.6646,0.6646,0.664,0.6637,0.6645,0.6642,0.6641,0.6634,0.663,0.6626,0.6616,0.6619,0.6614,0.6618,0.6605,0.6617,0.6616,0.6618,0.6618,0.6618,0.6602,0.6601,0.6601,0.6601,0,0.662,0.6624,0.6619,0.6617,0.6613,0.6611,0.661,0.6607,0.6615,0.6611,0.6605,0.6602,0.6597,0.6592,0.6589,0.6589,0.6596,0.6597,0.6595,0.6592,0.6591,0.6592,0.6631,0.6598,0.6598,0.6598,0.6598,0.6599,0.6593,0.6587,0.6588,0.6584,0.6584,0.6583,0.6578,0.6581,0.6577,0.6574,0.6578,0.6572,0.6572,0.6569,0.6569,0.6564,0.6569,0.6565,0.6564,0.6563,0.6562,0.6593,0.6564,0.6564,0.6564,0.6564,0.6564,0,0.6559,0.6561,0.6557,0.6555,0.6552,0.656,0.656,0.6557,0.6551,0.6551,0.6548,0.6542,0.6538,0.6542,0.6538,0.6534,0.6537,0.6533,0.6533,0.6533,0.6557,0.656,0.653,0.653,0.653,0.653,0.653,0.653,0.654,0.653,0.6534,0.6525,0.6527,0.6521,0.6521,0.652,0.652,0.6514,0.6511,0.6514,0.6516,0.6513,0.651,0.6511,0.6509,0.6504,0.6506,0.6528,0.6531,0.6534,0.6537,0.6503,0.6503,0.6482,0.6482,0.6482]},{"header":{"parameterUnit":"m.s-1","parameterCategory":1,"la1":30.2991,"la2":30.254,"lo1":-89.0895,"lo2":-89.0444,"dy":0.0017,"dx":0.0017,"nx":28,"ny":28,"refTime":"2024-05-10T09:00:00:Z","depth":0,"parameterNumber":3,"parameterNumberName":"V-component_of_WINDS"},"data":[0,0,0,0,0,0,0,0,0,0,0,0,0,0,0,0,0,0,0,0,0,0,0,0,0,0,0,0,0,0,0,0,0,0,0,0,0,0,0,0,0,0,0,0,0,0,0,0,0,0,0,0,0,0,0,0,0,0,-4.2435,-4.2435,0,-4.2512,-4.2513,-4.2514,-4.2494,-4.2492,-4.2491,-4.249,-4.2563,-4.2566,-4.2569,0,0,0,0,0,0,0,0,0,0,0,0,0,-4.2264,-4.2268,-4.2435,-4.2436,-4.2437,-4.2512,-4.2513,-4.2514,-4.2494,-4.2492,-4.2491,-4.2489,-4.2562,-4.2566,-4.257,0,0,0,0,0,0,0,0,0,0,0,0,0,-4.234,-4.2269,-4.2434,-4.2436,-4.2437,-4.2512,-4.2513,-4.2514,-4.2495,-4.2492,-4.249,-4.2488,-4.256,-4.2565,-4.257,-4.2647,0,0,-4.2586,-4.2588,0,0,0,0,0,0,0,0,-4.2335,-4.2346,-4.2435,-4.2436,-4.2437,-4.2491,-4.248,-4.2559,-4.2495,-4.2472,-4.2489,-4.2487,-4.254,-4.2547,-4.2566,-4.265,-4.2653,-4.2586,-4.2589,-4.2591,-4.2593,0,0,0,0,0,0,0,-4.233,-4.2342,-4.2465,-4.2436,-4.2437,-4.2431,-4.2439,-4.2495,-4.2518,-4.2474,-4.2473,-4.2483,-4.254,-4.2561,-4.2568,-4.2654,-4.2586,-4.259,-4.2593,-4.2595,-4.2806,-4.2808,0,0,0,0,0,0,-4.2325,-4.2338,-4.2463,-4.2467,-4.238,-4.2436,-4.2445,-4.2476,-4.2517,-4.2522,-4.2485,-4.2482,-4.2554,-4.2562,-4.257,-4.2663,-4.2591,-4.2596,-4.2599,-4.2803,-4.2806,-4.2809,0,0,0,0,0,0,-4.2321,-4.2336,-4.2459,-4.2403,-4.2418,-4.2441,-4.2476,-4.2479,-4.25,-4.2525,-4.2529,-4.2502,-4.2552,-4.2563,-4.2629,-4.2665,-4.2598,-4.2603,-4.28,-4.2804,-4.2808,-4.2848,0,0,0,0,0,0,-4.2317,-4.2335,-4.2365,-4.2404,-4.2421,-4.2518,-4.2478,-4.2482,-4.2509,-4.2506,-4.2543,-4.2546,-4.2551,-4.2621,-4.2634,-4.2671,-4.2607,-4.2797,-4.2802,-4.2807,-4.2844,-4.2853,-4.2861,0,0,0,0,0,-4.2311,-4.2372,-4.2367,-4.2382,-4.246,-4.252,-4.253,-4.2536,-4.2512,-4.2542,-4.2559,-4.2545,-4.266,-4.2628,-4.2642,-4.2681,-4.2795,-4.2801,-4.2806,-4.284,-4.2851,-4.2861,0,0,0,0,0,0,-4.2334,-4.2377,-4.2372,-4.2448,-4.2481,-4.2517,-4.2554,-4.2548,-4.2586,-4.2581,-4.2586,-4.2595,-4.2661,-4.2678,-4.2642,-4.2758,-4.2723,-4.2732,-4.2744,-4.2755,-4.2764,-4.2758,-4.2611,0,0,0,0,0,-4.2349,-4.2396,-4.243,-4.2494,-4.2511,-4.253,-4.2557,-4.2559,-4.2593,-4.2606,-4.2627,-4.2659,-4.2702,-4.273,-4.2771,-4.2847,-4.2854,-4.2881,-4.289,-4.2896,-4.2903,-4.2945,-4.2957,-4.2828,-4.2828,-4.2828,0,0,-4.2378,-4.2407,-4.2436,-4.2499,-4.2525,-4.2573,-4.2542,-4.2593,-4.2628,-4.2613,-4.2676,-4.2694,-4.2729,-4.28,-4.2833,-4.2816,-4.2941,-4.2904,-4.2909,-4.2912,-4.2952,-4.2964,-4.2975,-4.2832,-4.2831,-4.2831,0,0,-4.2456,-4.2483,-4.254,-4.2568,-4.2608,-4.2621,-4.2635,-4.2673,-4.2684,-4.2749,-4.2739,-4.278,-4.2854,-4.288,-4.2903,-4.2994,-4.2982,-4.3007,-4.3051,-4.3092,-4.3102,-4.3111,-4.3143,-4.3154,-4.3014,-4.3014,-4.3015,0,-4.2486,-4.2559,-4.2569,-4.2622,-4.265,-4.2642,-4.2699,-4.2724,-4.2775,-4.2794,-4.2776,-4.287,-4.2893,-4.297,-4.2993,-4.3012,-4.3027,-4.3002,-4.31,-4.3109,-4.3118,-4.3148,-4.316,-4.3017,-4.3017,-4.3017,-4.3016,0,-4.2595,-4.2646,-4.2687,-4.2739,-4.2772,-4.2826,-4.2843,-4.2875,-4.2875,-4.289,-4.2956,-4.2984,-4.3031,-4.305,-4.305,-4.3128,-4.3116,-4.3099,-4.3064,-4.3133,-4.3161,-4.3173,-4.3021,-4.302,-4.3019,-4.3018,0,0,-4.2686,-4.2747,-4.2761,-4.2786,-4.2832,-4.287,-4.2925,-4.2974,-4.3,-4.3037,-4.3081,-4.3146,-4.3131,-4.3157,-4.316,-4.3196,-4.3266,-4.3175,-4.3176,-4.319,-4.3354,-4.3365,-4.3378,-4.326,-4.3263,-4.3264,-4.335,0,-4.2768,-4.2866,-4.2877,-4.2963,-4.301,-4.3005,-4.3052,-4.3085,-4.3101,-4.3142,-4.3158,-4.3204,-4.3181,-4.3197,-4.3233,-4.325,-4.3299,-4.3244,-4.33,-4.3302,-4.329,-4.3393,-4.3405,-4.3485,-4.3361,-4.3363,-4.3365,0,-4.2874,-4.2917,-4.3009,-4.3051,-4.3071,-4.3113,-4.3159,-4.3199,-4.3236,-4.3245,-4.3276,-4.3275,-4.333,-4.3295,-4.337,-4.3333,-4.3357,-4.3369,-4.3372,-4.3376,-4.3336,-4.3398,-4.351,-4.3522,-4.3383,-4.3381,-4.338,0,-4.2931,-4.3011,-4.3077,-4.3098,-4.3148,-4.3178,-4.32,-4.3235,-4.3264,-4.3304,-4.3323,-4.3368,-4.3393,-4.3427,-4.3438,-4.3412,-4.3513,-4.3478,-4.352,-4.352,-4.3539,-4.3537,-4.3655,-4.3558,-4.3557,-4.3557,-4.3557,0,-4.3019,-4.3075,-4.3104,-4.3144,-4.3206,-4.3219,-4.328,-4.3301,-4.3333,-4.3375,-4.3374,-4.3413,-4.3426,-4.3468,-4.3477,-4.3538,-4.3549,-4.3556,-4.3558,-4.3556,-4.3555,-4.3569,-4.3563,-4.356,-4.356,-4.3559,-4.3558,0,-4.3092,-4.3113,-4.3184,-4.3227,-4.324,-4.3284,-4.332,-4.3358,-4.3375,-4.3429,-4.3442,-4.3467,-4.3517,-4.3532,-4.3591,-4.3597,-4.3668,-4.3665,-4.3656,-4.3655,-4.3695,-4.3691,-4.3825,-4.3843,-4.3735,-4.3737,-4.3737,0,-4.3145,-4.3189,-4.3238,-4.3268,-4.3292,-4.334,-4.3371,-4.3386,-4.3417,-4.3465,-4.3497,-4.3547,-4.3587,-4.3666,-4.3688,-4.3734,-4.3731,-4.3775,-4.3737,-4.3734,-4.373,-4.3726,-4.373,-4.3781,-4.3782,-4.3783,-4.3784,0,-4.3238,-4.3248,-4.3293,-4.3344,-4.3381,-4.3421,-4.3458,-4.3483,-4.3503,-4.3539,-4.3591,-4.3623,-4.3685,-4.3733,-4.378,-4.38,-4.3795,-4.3796,-4.3808,-4.3805,-4.3797,-4.3801,-4.3673,-4.3792,-4.3791,-4.3791,-4.379,-4.379,-4.3302,-4.3341,-4.3383,-4.3434,-4.3465,-4.3501,-4.354,-4.3563,-4.3607,-4.366,-4.3667,-4.3723,-4.3759,-4.3822,-4.3845,-4.3888,-4.3875,-4.3892,-4.3896,-4.39,-4.3903,-4.3793,-4.3897,-4.3897,-4.3897,-4.3896,-4.3896,0,-4.3394,-4.3422,-4.3469,-4.3524,-4.3564,-4.356,-4.3602,-4.3635,-4.3686,-4.3722,-4.3763,-4.3823,-4.3871,-4.3899,-4.3947,-4.3976,-4.3975,-4.3988,-4.3984,-4.3989,-4.3912,-4.3897,-4.3988,-4.3988,-4.3988,-4.3988,-4.3988,-4.3988,-4.3446,-4.3512,-4.3527,-4.3608,-4.3635,-4.3692,-4.3716,-4.3749,-4.3779,-4.3847,-4.3888,-4.3907,-4.394,-4.3991,-4.4034,-4.4041,-4.4058,-4.4072,-4.4077,-4.4004,-4.3995,-4.3985,-4.3971,-4.4076,-4.4077,-4.4151,-4.4151,-4.4152]}]]